Date,TemperatureHighF,TemperatureAvgF,TemperatureLowF,DewpointHighF,DewpointAvgF,DewpointLowF,HumidityHigh,HumidityAvg,HumidityLow,PressureMaxIn,PressureMinIn,WindSpeedMaxMPH,WindSpeedAvgMPH,GustSpeedMaxMPH,PrecipitationSumIn
2013-1-1,38.5,35.2,24.6,27.4,20.1,2.6,65,54,37,29.86,29.67,11,3,19,0.01
2013-1-2,32.2,26.4,20.1,12.6,8.7,4.7,54,47,40,30.01,29.83,8,2,18,0.00
2013-1-3,33.4,26.5,16.7,14.8,10.3,2.3,57,50,39,30.03,29.89,7,2,14,0.00
2013-1-4,39.7,33.5,27.9,22.6,18.0,12.7,62,53,44,29.90,29.75,9,2,15,0.00
2013-1-5,43.5,35.2,28.6,22.3,18.7,14.6,66,51,42,30.12,29.83,13,2,20,0.00
2013-1-9,46.0,44.7,43.2,33.4,32.3,31.0,62,61,61,30.05,30.00,4,2,8,0.00
2013-1-10,43.2,38.0,35.8,31.0,23.0,19.9,63,54,51,30.38,30.05,2,1,4,0.00
2013-1-11,43.0,40.6,39.0,40.5,37.6,35.8,91,89,88,30.05,29.97,4,1,6,0.24
2013-1-12,44.2,43.1,42.4,40.9,40.3,40.0,91,90,88,30.03,29.97,2,0,4,0.01
2013-1-13,46.9,44.2,41.5,44.5,41.8,39.1,92,91,90,30.01,29.86,3,0,6,0.00
2013-1-14,56.7,48.7,36.3,52.5,41.2,28.4,92,77,54,30.14,29.75,10,2,18,0.10
2013-1-15,38.3,36.0,33.8,29.0,25.1,21.0,81,65,53,30.19,30.06,7,2,11,0.11
2013-1-16,34.5,32.9,31.5,30.0,28.2,23.6,85,83,64,30.08,29.65,6,0,9,0.01
2013-1-17,44.8,37.7,32.9,30.5,26.5,18.9,84,65,49,29.93,29.74,13,2,17,0.27
2013-1-18,32.7,26.8,21.9,18.8,4.4,-5.8,56,38,22,30.32,29.86,11,2,17,0.00
2013-1-19,50.2,40.6,27.7,26.7,20.1,6.9,56,44,32,30.23,29.77,11,3,17,0.00
2013-1-20,54.5,42.8,28.6,29.1,19.6,2.0,64,41,21,29.87,29.51,11,3,21,0.00
2013-1-21,31.3,27.7,21.7,13.9,7.9,1.4,55,43,33,29.93,29.66,7,1,11,0.00
2013-1-22,25.5,19.3,11.7,12.0,-6.3,-15.8,56,31,21,30.03,29.65,12,4,20,0.00
2013-1-23,20.7,13.5,8.4,-6.0,-12.5,-17.4,45,28,21,30.07,29.98,11,2,16,0.00
2013-1-24,24.6,15.1,8.4,-4.7,-8.2,-12.7,51,34,22,30.21,29.96,14,3,27,0.00
2013-1-25,24.8,17.4,11.3,10.6,-1.2,-9.1,68,44,25,30.24,29.89,8,1,16,0.00
2013-1-26,28.2,19.4,12.0,7.6,2.0,-4.0,66,48,25,30.19,29.86,10,2,18,0.02
2013-1-27,34.9,24.7,14.5,7.9,2.7,-1.4,56,39,23,30.35,30.18,8,1,15,0.00
2013-1-28,34.0,30.0,23.2,29.1,20.0,5.3,83,67,45,30.32,29.84,5,0,8,0.01
2013-1-29,43.2,37.3,33.8,38.7,32.1,28.9,87,81,72,29.99,29.82,8,1,11,0.11
2013-1-30,53.8,46.5,36.7,50.0,42.6,32.0,89,86,83,29.94,29.21,8,2,14,0.07
2013-1-31,57.2,44.8,28.4,53.2,27.1,3.7,88,53,25,29.61,28.88,14,5,30,0.66
2013-2-1,33.4,27.3,22.3,8.0,2.7,-4.7,48,35,24,30.05,29.60,12,3,24,0.00
2013-2-2,32.0,24.3,17.4,14.2,3.5,-2.9,68,42,24,30.14,29.90,8,2,14,0.00
2013-2-3,23.2,23.1,23.0,14.9,14.6,14.0,70,69,68,29.90,29.87,1,0,2,0.00
2013-2-8,41.3,30.9,25.9,31.5,26.3,20.4,85,83,38,29.97,29.46,11,1,23,2.60
2013-2-9,34.0,26.8,18.7,22.1,11.0,-3.2,80,55,26,30.17,29.57,13,2,26,0.05
2013-2-10,40.5,25.2,13.8,15.5,2.9,-4.6,60,39,21,30.32,30.16,8,1,13,0.10
2013-2-11,43.7,36.7,27.0,38.9,30.8,15.3,86,79,60,30.17,29.49,3,0,5,0.16
2013-2-12,47.5,39.5,32.5,35.5,25.3,18.5,87,58,38,29.79,29.54,9,2,15,0.01
2013-2-13,48.0,36.4,26.4,27.0,20.9,15.5,77,54,36,29.78,29.53,8,1,11,0.00
2013-2-14,48.7,37.4,28.9,27.6,25.1,21.1,81,63,36,29.83,29.55,6,1,9,0.02
2013-2-15,56.3,42.2,31.3,33.4,29.1,23.7,77,61,35,29.84,29.74,8,1,12,0.00
2013-2-16,40.5,35.4,32.5,29.9,23.8,15.4,78,63,46,29.80,29.68,10,2,14,0.02
2013-2-21,34.7,29.3,23.9,9.8,7.3,0.0,53,40,26,30.12,29.82,15,5,24,0.23
2013-2-22,38.3,31.0,23.4,23.1,16.5,8.5,63,55,43,30.23,30.08,14,2,20,0.00
2013-2-23,43.2,36.4,34.0,35.7,29.7,23.1,85,77,63,30.12,29.50,14,3,21,0.10
2013-2-24,46.6,38.2,32.4,35.3,28.5,18.4,84,69,50,29.80,29.57,13,3,20,0.01
2013-2-25,47.7,37.2,26.8,43.8,21.7,15.9,97,54,37,30.08,29.80,11,1,17,0.00
2013-2-26,42.3,36.4,30.4,29.6,26.3,20.5,78,67,57,30.13,29.77,17,3,25,0.14
2013-2-27,44.1,40.9,35.1,39.8,36.3,28.9,86,83,78,29.77,29.32,24,6,39,0.54
2013-2-28,52.5,42.8,38.5,40.8,33.9,27.5,86,72,55,29.46,29.37,8,1,12,0.00
2013-3-1,46.8,39.5,32.7,29.6,26.0,20.1,72,59,43,29.62,29.43,9,2,14,0.00
2013-3-2,41.9,35.6,30.2,23.1,20.6,18.4,74,54,45,29.61,29.51,11,3,15,0.00
2013-3-3,42.4,32.6,28.2,21.6,16.0,12.4,69,51,34,29.59,29.48,14,4,19,0.00
2013-3-4,42.4,33.1,26.4,19.6,14.8,9.6,57,47,36,29.73,29.57,14,4,22,0.00
2013-3-5,49.1,38.2,29.7,25.1,20.9,15.6,60,50,37,29.86,29.71,11,3,19,0.00
2013-3-6,43.9,39.2,36.9,31.5,27.5,23.8,72,63,56,29.83,29.69,21,7,35,0.00
2013-3-7,38.3,35.1,32.2,28.0,25.1,20.6,79,67,53,29.92,29.75,14,4,23,0.02
2013-3-8,40.3,34.8,29.8,29.7,26.2,22.2,82,71,52,30.01,29.82,11,2,20,4.28
2013-3-9,55.9,42.8,33.1,23.5,18.6,11.1,55,39,22,30.15,29.99,12,3,22,0.00
2013-3-10,51.8,38.4,28.4,33.9,27.5,17.5,78,65,48,30.22,30.14,8,1,10,0.00
2013-3-11,55.6,45.4,36.9,42.9,36.3,28.2,78,71,56,30.16,29.94,7,2,11,0.00
2013-3-12,54.3,50.4,42.4,48.6,43.6,33.7,82,78,68,29.95,29.51,11,3,20,0.64
2013-3-13,53.4,42.6,34.2,33.7,26.8,15.7,79,56,24,29.72,29.61,7,2,13,0.00
2013-3-14,40.1,33.9,27.9,22.6,7.7,-1.0,55,34,21,29.79,29.66,14,4,24,0.00
2013-3-15,44.6,36.8,27.1,26.8,14.0,0.4,56,39,25,29.80,29.55,10,3,15,0.00
2013-3-16,40.1,34.3,31.6,25.1,20.5,14.7,75,58,41,29.74,29.61,5,1,10,0.04
2013-3-17,38.7,32.6,27.0,24.5,13.2,2.4,76,47,26,30.15,29.74,9,2,15,0.04
2013-3-18,34.2,29.6,24.4,26.9,10.3,-2.3,80,47,26,30.25,29.87,15,4,23,0.00
2013-3-19,41.5,35.8,32.4,34.5,29.0,22.8,82,76,60,29.87,29.53,17,4,33,0.40
2013-3-20,46.6,37.1,29.7,22.6,16.3,10.1,63,44,24,29.71,29.61,9,2,16,0.00
2013-3-21,39.2,34.4,31.1,22.0,12.7,2.7,67,42,24,29.69,29.46,9,2,16,0.00
2013-3-25,40.3,38.1,36.5,29.7,27.6,15.9,73,66,37,29.62,29.31,12,2,18,0.08
2013-3-26,45.9,38.2,35.2,27.3,24.1,20.9,64,57,47,29.57,29.41,7,1,11,0.00
2013-3-27,55.0,48.0,39.6,26.6,22.6,15.4,58,38,21,29.80,29.68,14,3,18,0.00
2013-3-28,52.2,43.1,34.9,30.7,27.0,23.2,65,53,43,29.95,29.56,11,3,19,0.00
2013-3-29,57.9,46.5,37.4,29.0,25.3,19.7,60,45,26,29.97,29.88,8,2,14,0.00
2013-3-30,59.7,46.1,34.3,29.4,24.3,15.7,68,46,21,30.00,29.89,8,1,13,0.00
2013-3-31,55.8,44.5,32.7,38.5,31.9,25.4,80,62,38,29.97,29.59,9,2,14,0.15
2013-4-11,46.9,46.1,45.9,39.4,38.0,36.8,75,73,70,29.91,29.89,10,4,15,0.00
2013-4-12,46.0,42.1,39.6,38.4,36.5,33.5,89,81,68,29.90,29.56,27,7,35,0.44
2013-4-13,58.5,47.0,37.9,40.5,36.8,33.3,88,70,42,29.82,29.58,8,1,11,0.02
2013-4-14,56.7,49.4,46.2,39.9,36.3,26.7,77,62,35,29.91,29.80,9,2,17,0.00
2013-4-18,60.6,55.4,52.2,46.5,42.9,33.6,79,64,43,30.20,29.96,8,2,13,0.00
2013-4-19,72.7,61.1,52.9,58.7,54.1,46.5,89,79,61,29.96,29.49,10,2,14,0.04
2013-4-20,61.3,53.9,45.1,56.4,35.0,21.2,86,53,25,30.14,29.50,10,3,21,0.11
2013-4-21,54.0,44.8,34.2,30.3,20.9,14.5,64,40,22,30.47,30.14,11,3,18,0.00
2013-4-22,54.5,45.2,36.7,36.0,31.7,27.6,76,60,38,30.51,30.34,15,4,26,0.00
2013-4-23,52.5,44.6,39.0,40.3,35.2,29.2,81,70,62,30.35,29.94,11,3,24,0.00
2013-4-24,72.3,53.2,39.9,48.9,42.3,34.8,84,68,42,29.95,29.69,9,2,14,0.00
2013-4-25,66.6,55.1,45.5,48.9,31.2,18.0,84,45,16,30.11,29.71,12,2,21,0.00
2013-4-26,54.5,45.1,39.9,38.9,34.5,32.7,76,67,44,30.21,30.10,8,0,20,0.00
2013-5-4,41.3,41.3,41.3,31.5,31.5,31.5,38,38,38,29.97,29.97,1,1,0,0.00
2013-5-5,63.3,55.8,44.8,43.4,40.5,38.3,79,58,42,30.13,30.06,10,2,13,0.00
2013-5-6,70.7,55.0,41.4,50.7,44.5,36.9,85,69,48,30.12,30.00,5,1,8,0.00
2013-5-7,74.3,60.0,47.3,57.4,50.6,43.3,87,72,55,30.03,29.94,8,1,13,0.00
2013-5-8,63.3,59.0,53.2,58.9,54.3,49.5,88,85,79,29.97,29.83,8,1,14,0.77
2013-5-9,68.2,57.5,53.2,59.8,53.3,49.8,90,86,68,29.87,29.73,4,0,8,0.43
2013-5-10,83.8,67.0,53.8,57.4,53.8,50.3,89,66,35,29.84,29.75,5,1,10,0.00
2013-5-11,67.1,62.4,58.8,61.9,57.4,52.3,88,84,76,29.76,29.55,4,0,8,0.23
2013-5-12,73.2,61.7,50.4,56.3,42.4,24.0,90,55,22,29.77,29.50,8,2,17,0.04
2013-5-13,59.5,49.8,41.5,33.7,28.9,20.4,68,46,26,29.95,29.77,9,2,16,0.00
2013-5-14,62.6,50.5,39.4,36.7,29.1,19.6,77,48,21,29.96,29.85,8,2,15,0.00
2013-5-15,68.2,56.0,41.9,53.1,45.2,36.6,83,68,46,29.91,29.51,6,1,11,0.00
2013-5-16,84.4,67.5,54.3,54.9,50.9,43.5,86,59,27,29.68,29.55,7,1,11,0.00
2013-5-17,73.8,64.1,54.0,45.9,41.5,38.6,63,44,29,30.06,29.68,8,2,16,0.00
2013-5-18,73.8,59.1,48.7,53.4,47.7,40.8,85,67,40,30.16,30.05,5,1,8,0.07
2013-5-19,58.3,56.6,55.0,54.4,52.5,48.3,89,86,78,30.17,30.02,4,1,9,0.47
2013-5-20,83.7,67.4,56.8,64.7,59.4,53.6,90,77,52,30.02,29.81,5,1,9,0.00
2013-5-21,92.1,75.0,60.8,68.3,62.9,56.8,88,68,44,29.84,29.70,7,1,11,0.00
2013-5-22,79.7,67.0,56.1,65.7,59.3,52.6,88,77,58,29.81,29.71,8,1,13,0.00
2013-5-23,82.0,68.4,63.5,67.1,62.1,59.4,88,81,59,29.76,29.63,6,1,11,0.55
2013-5-24,67.1,56.6,46.2,61.8,51.9,39.9,89,84,74,29.79,29.53,12,2,18,0.24
2013-5-25,53.6,48.3,43.9,44.7,40.2,37.2,86,74,60,29.83,29.72,15,4,23,0.29
2013-5-26,66.4,55.9,45.9,41.2,37.3,33.7,70,52,33,30.05,29.77,14,3,23,0.00
2013-5-27,78.3,61.7,44.4,45.8,39.1,34.9,71,47,23,30.08,29.96,8,1,14,0.00
2013-5-28,69.8,58.0,49.6,53.7,48.6,41.2,88,72,45,30.07,29.98,4,0,8,0.39
2013-5-29,87.4,68.7,57.0,66.3,59.5,53.7,89,75,48,29.99,29.86,4,1,10,0.00
2013-5-30,96.6,80.5,64.6,68.5,63.4,59.0,85,59,34,29.98,29.91,8,1,9,0.00
2013-5-31,97.7,80.7,68.7,69.3,63.7,60.2,78,58,36,29.99,29.84,5,1,11,0.00
2013-6-1,94.1,80.1,69.1,69.1,64.4,59.4,80,60,42,29.87,29.75,9,1,13,0.00
2013-6-2,90.9,78.2,65.8,68.0,64.4,42.6,85,64,45,30.06,29.62,8,1,13,10.46
2013-6-3,80.6,71.6,66.4,66.8,63.3,47.6,87,76,48,29.74,29.65,5,1,10,0.33
2013-6-4,76.8,66.1,55.0,49.7,44.5,39.8,68,47,28,29.97,29.73,9,2,16,0.00
2013-6-5,77.2,65.2,54.0,52.1,45.4,39.7,75,50,35,30.07,29.96,7,1,11,0.00
2013-6-6,73.0,63.1,53.2,58.1,53.1,46.7,86,71,42,30.01,29.88,5,1,13,0.12
2013-6-7,60.3,59.5,57.7,56.7,55.7,54.2,88,87,84,29.89,29.50,12,3,16,1.79
2013-6-8,81.0,67.4,55.9,61.8,57.0,52.0,89,71,50,29.90,29.43,8,2,14,0.22
2013-6-9,84.6,71.6,58.5,60.4,56.7,54.0,86,62,40,30.03,29.90,7,1,11,0.00
2013-6-10,70.3,63.9,60.6,62.4,58.6,55.6,88,83,74,30.02,29.71,8,1,19,0.83
2013-6-11,84.6,71.5,61.0,69.3,61.2,53.8,91,72,49,29.71,29.46,9,2,16,0.07
2013-6-12,77.4,69.0,59.9,55.1,52.5,50.2,74,56,43,29.72,29.55,9,3,18,0.00
2013-6-13,63.3,59.8,55.0,57.7,54.2,50.3,87,82,74,29.70,29.34,16,2,21,0.69
2013-6-14,77.0,61.9,52.3,55.5,51.2,47.8,86,70,44,29.73,29.38,8,2,13,0.26
2013-6-15,83.5,70.6,57.2,56.2,51.8,47.1,80,54,31,29.86,29.73,8,1,11,0.00
2013-6-16,84.0,71.8,57.0,62.3,55.5,49.0,76,58,33,29.85,29.61,8,1,14,0.00
2013-6-17,91.2,77.1,64.4,64.9,61.4,58.9,86,61,36,29.77,29.67,8,1,12,0.00
2013-6-18,87.3,70.5,62.1,66.4,61.8,56.7,86,75,47,29.77,29.69,4,1,8,0.20
2013-6-19,78.1,67.5,57.7,60.3,51.9,43.8,86,61,30,30.03,29.74,7,1,16,0.05
2013-6-20,83.1,68.9,53.8,57.7,53.7,49.4,87,61,36,30.13,30.03,5,1,13,0.00
2013-6-21,87.4,72.8,59.2,61.0,54.0,46.9,69,53,38,30.16,30.09,5,1,12,0.00
2013-6-22,88.3,72.6,57.6,62.1,55.3,48.5,75,56,36,30.12,29.99,6,1,9,0.00
2013-6-23,93.0,77.3,63.0,69.0,63.2,53.6,83,64,43,30.05,29.91,8,1,12,0.00
2013-6-24,97.7,82.5,71.6,70.8,66.3,60.6,85,61,34,29.93,29.79,8,1,13,0.00
2013-6-25,95.9,82.2,68.4,69.8,65.3,60.5,80,58,40,29.86,29.66,7,1,18,0.00
2013-6-26,88.0,80.9,73.6,66.7,65.1,63.7,74,59,48,29.71,29.63,5,1,10,0.00
2013-6-27,85.3,76.3,56.8,69.2,66.8,43.1,87,73,57,30.11,29.42,6,1,11,15.69
2013-6-28,90.3,79.0,71.4,68.9,66.7,61.7,87,68,43,29.43,29.33,6,1,11,0.00
2013-6-29,88.5,76.4,67.3,67.4,64.9,61.7,87,69,45,29.57,29.35,6,1,13,0.00
2013-6-30,87.8,75.4,68.2,72.8,67.9,64.2,89,78,58,29.78,29.56,7,1,11,0.00
2013-7-1,76.6,73.3,71.8,71.1,68.5,66.9,88,85,79,29.92,29.76,8,1,13,0.66
2013-7-2,85.3,76.3,70.9,71.9,69.3,67.1,88,80,63,30.05,29.92,5,1,8,0.03
2013-7-3,89.1,77.9,72.1,72.2,68.8,65.6,87,74,55,30.12,30.03,5,1,8,0.00
2013-7-4,95.0,82.8,72.5,72.9,69.9,67.3,89,67,47,30.12,30.00,8,1,14,0.02
2013-7-5,96.3,85.0,75.0,72.0,69.3,66.4,81,61,43,30.08,29.94,6,2,10,0.00
2013-7-6,96.3,85.8,77.0,72.0,69.4,67.6,76,60,43,30.01,29.89,7,2,14,0.00
2013-7-7,98.1,87.1,77.0,72.3,69.7,62.9,78,58,42,29.93,29.78,7,1,12,0.00
2013-7-8,93.0,81.8,72.1,69.1,65.7,63.0,76,60,42,29.90,29.82,7,2,11,0.00
2013-7-9,92.8,80.3,70.9,72.3,67.5,63.4,80,66,45,29.94,29.84,4,1,8,0.02
2013-7-10,90.9,80.9,71.4,73.4,69.3,66.4,87,69,49,29.88,29.66,5,1,11,16.45
2013-7-11,86.7,78.6,70.7,73.0,68.3,60.5,87,72,50,29.79,29.66,5,1,8,0.31
2013-7-12,78.6,72.4,66.0,65.9,62.9,59.2,88,72,62,29.97,29.78,6,1,12,0.26
2013-7-13,82.2,72.1,65.3,71.0,66.9,61.7,91,84,67,30.15,29.97,6,1,11,0.01
2013-7-14,94.5,82.6,72.7,73.7,69.7,66.8,90,68,46,30.19,30.08,6,1,11,0.00
2013-7-15,97.0,86.0,79.0,71.9,69.7,67.3,73,59,44,30.10,29.99,6,1,9,0.00
2013-7-16,94.5,84.7,75.6,70.4,66.5,63.1,78,56,38,30.07,29.98,7,1,11,0.00
2013-7-17,98.8,86.2,75.2,71.4,67.3,62.6,73,55,33,30.06,29.92,4,1,9,0.00
2013-7-18,99.7,87.8,77.5,73.0,69.8,66.9,74,57,36,29.93,29.80,4,1,9,0.00
2013-7-19,100.2,90.0,79.0,73.7,71.5,69.6,75,56,40,29.83,29.64,10,2,17,0.00
2013-7-20,96.4,86.9,80.1,73.0,68.8,63.0,68,56,43,29.70,29.57,8,2,15,0.00
2013-7-21,88.0,79.4,72.9,70.0,64.1,59.0,82,61,39,29.83,29.69,4,1,9,0.00
2013-7-22,85.5,75.5,71.6,73.0,69.2,65.6,90,81,64,29.83,29.68,6,1,11,0.17
2013-7-23,91.0,78.9,72.7,72.8,70.3,66.9,92,77,49,29.68,29.41,6,1,9,0.69
2013-7-24,84.2,76.2,67.5,70.2,63.7,52.0,90,67,48,29.80,29.47,8,2,14,0.02
2013-7-25,67.5,64.5,62.2,56.6,52.9,49.8,77,66,57,29.93,29.80,7,2,12,0.01
2013-7-26,84.4,71.8,62.6,62.8,58.9,55.8,83,65,44,29.90,29.84,6,1,10,0.02
2013-7-27,85.6,74.0,63.0,65.6,61.5,59.1,91,68,45,29.92,29.82,7,1,11,0.00
2013-7-28,79.9,72.1,65.3,68.1,65.3,61.3,91,80,62,29.86,29.80,4,0,10,0.18
2013-7-29,89.6,76.3,67.5,69.8,62.5,48.9,92,66,32,29.96,29.81,5,1,11,0.01
2013-7-30,83.3,71.9,60.3,59.5,55.8,53.1,83,58,42,30.03,29.96,5,1,11,0.00
2013-7-31,84.6,72.9,61.0,60.7,57.9,55.1,82,61,41,30.02,29.89,5,1,9,0.00
2013-8-1,78.3,68.9,65.7,66.7,63.2,58.9,91,83,60,29.90,29.69,3,0,8,0.39
2013-8-2,86.5,75.6,64.6,66.7,62.1,56.8,93,66,39,29.77,29.65,7,1,14,0.01
2013-8-3,81.1,71.3,66.4,65.0,60.6,55.6,84,70,51,29.78,29.69,5,1,13,0.05
2013-8-4,81.3,71.3,62.4,62.1,56.3,49.1,86,61,39,29.83,29.70,7,2,14,0.00
2013-8-5,79.5,68.5,57.9,53.8,48.9,42.7,75,52,32,29.92,29.82,8,1,15,0.00
2013-8-6,83.7,69.6,56.5,60.4,55.1,50.3,88,62,36,29.99,29.89,5,1,11,0.00
2013-8-7,81.5,71.5,63.0,64.7,60.9,56.0,85,70,52,30.01,29.93,5,1,11,0.00
2013-8-8,84.4,74.0,69.4,70.9,67.8,64.5,89,81,63,29.94,29.87,4,1,8,0.08
2013-8-9,79.7,74.4,72.7,74.8,70.3,67.6,90,87,83,29.89,29.69,4,1,10,0.05
2013-9-2,74.1,71.6,41.3,69.3,66.5,31.5,87,82,38,29.97,29.57,1,0,2,0.00
2013-9-6,74.5,60.5,52.9,54.1,43.3,40.3,76,55,34,30.03,29.68,3,0,6,0.00
2013-9-7,81.7,65.8,50.9,56.3,48.7,42.5,83,58,27,29.99,29.75,6,1,10,0.00
2013-9-8,82.8,70.8,60.3,62.1,53.3,38.6,75,55,28,29.94,29.67,11,2,18,0.00
2013-9-9,74.5,62.9,51.4,57.0,47.1,41.0,75,57,41,30.10,29.93,6,1,9,0.00
2013-9-10,86.9,74.6,64.9,70.2,64.9,56.8,85,72,55,30.02,29.91,7,1,14,0.01
2013-9-11,98.1,83.0,72.7,74.0,70.3,67.6,87,67,44,29.97,29.84,5,1,9,0.00
2013-9-12,89.1,76.6,68.5,71.9,68.2,62.9,91,76,54,29.86,29.55,12,1,16,0.77
2013-9-13,79.5,67.5,57.4,66.5,59.4,44.4,94,76,47,29.95,29.49,11,1,15,20.92
2013-9-14,68.2,58.2,50.2,49.2,46.5,43.9,81,66,47,29.98,29.69,9,2,17,0.00
2013-9-15,73.6,59.1,46.9,52.6,46.0,41.4,89,65,33,30.07,29.93,7,1,9,0.00
2013-9-16,73.6,62.4,55.6,55.8,51.9,44.2,88,70,45,30.10,29.88,8,1,14,0.01
2013-9-17,66.7,54.5,45.3,44.2,39.9,36.1,83,59,38,30.28,30.10,6,1,13,0.00
2013-9-18,74.8,57.8,46.0,48.9,44.5,38.1,91,66,29,30.20,30.04,5,1,7,0.00
2013-9-19,77.0,56.0,48.2,53.1,48.0,45.7,92,78,36,30.05,29.98,5,1,8,0.00
2013-9-20,81.0,70.6,63.5,57.9,57.0,55.5,81,65,42,29.94,29.86,4,1,6,0.00
2013-9-28,74.3,64.5,55.0,53.2,50.9,47.0,85,63,42,30.13,29.73,5,1,8,0.00
2013-9-29,72.0,59.8,51.4,56.5,51.5,47.7,92,76,53,30.10,29.94,6,0,9,0.00
2013-9-30,74.5,59.7,48.4,53.8,50.2,46.2,93,73,44,29.95,29.82,4,0,6,0.00
2013-10-1,82.4,65.6,52.5,56.6,53.5,49.4,90,68,39,29.85,29.74,5,1,10,0.00
2013-10-2,84.2,70.0,57.2,61.0,57.0,52.4,85,65,45,29.86,29.75,8,1,13,0.00
2013-10-3,78.6,66.9,55.2,60.1,54.4,51.0,91,67,42,29.98,29.86,6,0,9,0.00
2013-10-4,87.3,70.0,59.2,67.0,60.6,54.8,90,74,46,29.93,29.82,6,0,9,0.00
2013-10-5,75.9,66.8,62.4,63.1,60.3,58.0,87,80,64,29.97,29.88,3,0,5,0.00
2013-10-6,66.0,64.9,64.0,64.5,62.2,60.8,95,91,86,29.97,29.89,8,1,12,0.03
2013-10-7,75.9,67.3,57.9,68.6,63.4,51.1,95,88,71,29.90,29.63,9,1,18,0.33
2013-10-8,68.5,57.9,48.6,50.9,44.7,40.6,85,63,39,30.19,29.84,6,1,14,0.00
2013-10-9,63.0,55.5,48.9,47.6,43.1,37.6,77,63,52,30.26,30.15,7,1,11,0.00
2013-10-10,64.9,57.4,51.3,54.5,48.5,43.4,76,72,67,30.15,29.94,5,2,10,0.00
2013-10-11,68.5,63.4,59.5,57.3,54.4,50.9,79,73,66,29.97,29.84,7,2,12,22.12
2013-10-12,72.0,63.5,57.9,55.8,47.5,37.2,75,57,31,30.15,29.94,11,3,21,0.00
2013-10-13,63.9,56.8,52.9,50.1,47.8,45.9,79,72,61,30.25,30.14,8,2,14,0.00
2013-10-14,67.1,56.7,50.0,50.9,47.2,44.8,86,72,53,30.23,30.10,4,0,7,0.00
2013-10-15,72.9,57.1,47.3,54.7,48.9,44.8,91,76,49,30.12,29.97,5,0,9,0.00
2013-10-16,64.8,57.6,50.2,56.3,51.3,46.2,88,80,66,29.98,29.77,3,0,4,0.00
2013-10-17,75.6,65.0,60.4,60.6,58.0,55.9,87,79,57,29.77,29.55,4,1,9,0.00
2013-10-18,70.3,61.4,51.8,60.8,47.0,40.8,87,61,37,29.83,29.52,9,2,14,0.00
2013-10-19,64.8,54.6,43.2,52.0,44.6,38.4,86,70,49,29.84,29.59,5,0,11,0.00
2013-10-20,64.6,54.8,46.0,52.3,39.9,32.3,77,59,32,29.91,29.59,8,2,12,0.00
2013-10-21,69.3,54.4,42.1,43.9,38.9,32.3,80,59,26,29.99,29.83,5,1,11,0.00
2013-10-22,66.9,54.4,45.0,51.9,45.2,40.5,90,72,48,30.05,29.59,6,1,13,22.12
2013-10-23,54.5,46.6,39.6,40.3,36.3,33.3,87,68,46,29.67,29.46,6,1,9,0.00
2013-10-24,55.4,45.5,36.7,34.8,30.0,24.0,79,57,31,29.84,29.58,8,2,16,0.00
2013-10-25,53.2,43.8,36.7,33.8,30.1,26.9,74,59,42,30.06,29.84,11,2,18,0.00
2013-10-26,56.7,45.8,33.4,34.6,30.0,24.9,85,57,32,30.06,29.73,9,2,21,0.00
2013-10-27,59.4,49.1,40.5,34.9,32.4,29.8,69,53,34,29.80,29.68,8,1,12,0.00
2013-11-2,69.1,60.8,50.0,50.5,43.6,37.7,75,54,41,30.07,29.45,6,1,12,0.17
2013-11-3,50.7,44.4,34.3,40.8,31.7,14.7,77,61,44,30.29,29.62,11,2,17,0.00
2013-11-4,47.3,36.2,29.3,23.4,16.9,9.7,64,47,23,30.51,30.29,7,1,11,22.29
2013-11-5,54.9,44.6,34.0,39.6,32.7,19.9,78,63,51,30.50,30.33,5,1,7,0.00
2013-11-6,62.1,51.5,40.5,49.1,43.2,36.6,88,74,53,30.34,29.91,9,1,11,22.29
2013-11-7,63.0,53.5,38.7,56.0,46.6,29.0,86,78,54,29.91,29.58,8,2,14,0.18
2013-11-8,50.5,42.6,37.4,31.5,27.0,22.2,75,55,36,30.04,29.75,11,2,19,0.00
2013-11-9,50.2,42.8,32.7,33.2,26.7,22.6,70,53,34,30.12,29.83,5,1,10,0.00
2013-11-10,61.5,48.6,39.4,38.8,32.9,27.4,75,56,28,29.87,29.62,11,2,24,0.00
2013-11-11,54.0,47.8,39.6,32.3,27.9,24.5,55,46,34,30.03,29.79,9,2,18,0.00
2013-11-12,50.2,37.4,28.6,34.9,23.4,13.1,83,58,43,30.12,29.76,10,2,20,0.00
2013-11-13,39.4,31.5,26.6,17.5,11.2,2.6,61,44,23,30.18,30.09,11,2,18,0.00
2013-11-14,54.1,40.9,30.4,21.1,15.6,9.3,58,38,20,30.10,29.96,8,1,15,0.00
2013-11-15,59.2,44.9,33.1,33.7,24.6,16.9,74,47,21,30.08,29.98,6,0,8,0.00
2013-11-16,61.7,48.7,39.0,44.1,38.7,27.1,90,70,45,30.16,30.06,4,0,7,0.00
2013-11-17,59.4,53.6,44.2,56.5,50.9,41.7,94,91,87,30.12,29.64,6,1,10,0.00
2013-11-18,66.9,58.7,49.1,58.0,40.9,25.2,95,57,28,29.64,29.44,14,2,21,0.00
2013-11-19,49.1,42.6,33.4,29.3,24.4,18.9,56,48,41,30.18,29.61,13,4,24,0.00
2013-11-20,44.4,34.8,29.1,18.9,13.8,6.8,59,43,22,30.44,30.17,12,2,17,0.00
2013-11-21,48.9,39.8,27.0,38.1,26.7,11.8,74,59,44,30.45,30.22,8,1,9,0.00
2013-11-22,56.5,50.8,45.7,49.5,45.0,37.9,90,81,74,30.22,29.72,6,0,8,22.89
2013-11-23,52.9,41.3,28.4,47.2,24.2,-0.7,83,52,27,29.87,29.72,13,4,22,0.00
2013-11-24,29.7,24.7,21.0,5.3,-1.6,-7.2,44,31,21,30.19,29.82,17,5,25,0.00
2013-11-25,36.5,28.2,19.8,12.9,7.4,2.1,55,42,25,30.28,30.16,11,2,20,0.00
2013-11-26,46.6,37.0,32.7,44.5,23.2,11.6,93,60,41,30.17,29.65,11,2,23,0.40
2013-11-27,60.8,46.9,32.9,58.9,42.9,17.7,95,86,53,29.65,29.16,12,4,20,1.62
2013-11-28,35.1,30.2,25.7,18.1,9.9,1.8,56,43,25,30.31,29.55,13,3,24,0.00
2013-11-29,38.7,31.1,25.5,20.2,15.3,10.4,65,52,42,30.58,30.29,6,1,11,0.00
2013-11-30,35.4,29.4,21.7,25.6,14.8,6.7,67,54,42,30.60,30.21,8,1,11,0.00
2013-12-1,51.1,42.9,35.8,34.7,30.6,25.9,73,62,51,30.21,29.85,4,0,7,0.00
2013-12-2,46.0,39.1,34.3,37.3,33.2,27.9,87,79,70,29.86,29.72,3,0,4,0.00
2013-12-3,53.8,40.5,31.8,38.3,32.8,28.9,92,75,51,29.85,29.69,4,0,7,0.00
2013-12-4,52.2,41.6,32.5,39.3,33.9,28.0,84,74,54,29.99,29.84,4,0,7,0.00
2013-12-5,54.5,50.7,45.0,52.5,48.1,39.5,93,91,81,29.97,29.77,4,1,8,0.04
2013-12-6,54.7,45.9,35.1,52.7,43.2,30.9,94,90,83,30.00,29.71,8,1,12,0.70
2013-12-7,41.0,35.0,29.5,32.3,25.3,15.1,86,69,49,30.35,29.93,11,2,18,0.02
2013-12-8,31.5,28.9,25.3,24.8,15.4,10.7,85,57,49,30.43,30.23,8,2,11,0.00
2013-12-9,38.3,33.0,28.0,36.0,29.5,23.2,92,87,81,30.23,29.78,10,1,16,0.08
2013-12-10,34.0,31.2,25.9,30.2,26.6,15.6,88,83,65,29.95,29.68,3,0,5,0.00
2013-12-11,35.4,28.1,23.2,16.4,13.4,10.5,65,54,42,30.13,29.95,8,1,13,0.08
2013-12-12,28.2,23.5,20.3,11.2,2.6,-4.6,54,40,24,30.18,29.98,11,2,18,0.00
2013-12-13,35.2,27.1,19.0,13.5,7.2,-1.5,54,43,34,30.17,29.92,8,2,17,0.00
2013-12-14,31.1,22.1,17.2,27.3,13.0,9.2,88,68,52,30.34,29.64,13,4,20,0.00
2013-12-15,38.8,33.7,28.8,32.5,26.5,18.1,89,76,57,29.66,29.31,14,2,26,0.25
2013-12-16,57.4,26.1,17.8,19.7,6.8,-0.9,65,44,29,30.07,29.54,8,2,17,26.29
2013-12-17,27.7,22.6,17.2,21.7,13.6,3.2,78,68,46,30.06,29.76,7,1,12,26.29
2013-12-18,38.1,28.0,19.2,22.7,15.7,10.4,75,60,43,29.99,29.73,8,1,14,0.09
2013-12-19,45.0,35.3,25.2,27.5,21.1,12.6,67,56,44,30.00,29.83,7,1,11,0.07
2013-12-20,51.8,41.6,34.0,34.7,28.4,24.4,75,60,45,29.94,29.78,4,0,8,0.07
2013-12-27,35.6,32.2,27.9,20.2,18.6,16.9,67,57,47,30.16,30.10,2,0,5,0.00
2013-12-28,52.7,40.5,28.4,26.6,22.3,18.9,68,50,29,30.12,29.89,8,1,17,0.00
2013-12-29,46.2,40.4,36.9,41.2,32.4,24.2,93,74,52,29.90,29.25,10,1,15,0.67
2013-12-30,41.5,33.4,20.7,36.8,21.9,4.2,90,64,40,30.03,29.51,10,2,14,0.03
2013-12-31,30.9,22.9,17.8,19.4,6.3,1.0,65,48,42,30.03,29.88,6,1,12,0.00